Guam Agana, GU

2:15 AM ChST on December 09, 2019 (GMT +1000)
Guam International

Weather History for PGUM - November, 2019

Change the Weather History Date:

Sunday, November 17, 2019

  Actual Average Record
Temperature  
Mean Temperature 81 °F -  
Max Temperature 87 °F 85 °F 91 °F (2015)
Min Temperature 75 °F 75 °F 75 °F (1998)
Cooling Degree Days 16    
Growing Degree Days 31 (Base 50)    
Moisture  
Dew Point 75 °F    
Average Humidity 86    
Maximum Humidity 91    
Minimum Humidity 74    
Precipitation  
Precipitation 0.42 in - - ()
Sea Level Pressure  
Sea Level Pressure 29.88 in    
Wind  
Wind Speed 10 mph ()    
Max Wind Speed 20 mph    
Max Gust Speed 33 mph    
Visibility 8.6 miles    
Events Rain    
Averages and records for this station are not official NWS values.
T = Trace of Precipitation, MM = Missing Value Source: Averaged Metar Reports

Daily Weather History Graph

Daily Weather History Graph

Search for Another Location

Airport or City:

Astronomy

Nov. 17, 2019 Rise Set
Actual Time 6:20 AM ChST 5:50 PM ChST
Civil Twilight 5:58 AM ChST 6:12 PM ChST
Nautical Twilight 5:32 AM ChST 6:38 PM ChST
Astronomical Twilight 5:06 AM ChST 7:04 PM ChST
Moon 9:59 PM ChST (11/17) 10:17 AM ChST (11/17)
Length of Visible Light 12h 14m
Length of Day
11h 29m
Waning Gibbous, 79% of the Moon is Illuminated
Nov 17
Waning Gibbous
Nov 20
Last Quarter
Nov 27
New
Dec 4
First Quarter
Dec 12
Full

Hourly Weather History & Observations

Time (ChST) Temp. Heat Index Dew Point Humidity Pressure Visibility Wind Dir Wind Speed Gust Speed Precip Events Conditions
12:54 AM 81.0 °F 87.3 °F 75.9 °F 85% 29.87 in 10.0 mi NE 8.1 mph - N/A   Clear
1:54 AM 80.1 °F 85.4 °F 75.9 °F 87% 29.86 in 10.0 mi ENE 8.1 mph - N/A   Clear
2:54 AM 80.1 °F 85.4 °F 75.9 °F 87% 29.86 in 10.0 mi ENE 4.6 mph - N/A   Partly Cloudy
3:54 AM 80.1 °F 85.1 °F 75.0 °F 85% 29.85 in 10.0 mi ENE 9.2 mph - N/A   Clear
4:54 AM 80.1 °F 85.1 °F 75.0 °F 85% 29.86 in 10.0 mi ENE 5.8 mph - N/A   Clear
5:54 AM 80.1 °F 85.1 °F 75.0 °F 85% 29.87 in 10.0 mi ENE 6.9 mph - N/A   Partly Cloudy
6:54 AM 81.0 °F 87.3 °F 75.9 °F 85% 29.89 in 10.0 mi ENE 8.1 mph - 0.00 in   Partly Cloudy
7:54 AM 81.0 °F 86.7 °F 75.0 °F 82% 29.92 in 10.0 mi East 12.7 mph 17.3 mph N/A   Scattered Clouds
8:14 AM 77.0 °F - 73.9 °F 90% 29.95 in 0.8 mi ENE 19.6 mph 29.9 mph 0.06 in Rain Heavy Rain
8:27 AM 77.0 °F - 72.0 °F 84% 29.95 in 1.2 mi NE 12.7 mph 24.2 mph 0.20 in Rain Heavy Rain
8:32 AM 77.0 °F - 73.9 °F 90% 29.94 in 3.0 mi ENE 9.2 mph 23.0 mph 0.21 in Rain Rain
8:54 AM 78.1 °F - 75.0 °F 90% 29.92 in 9.0 mi ENE 11.5 mph - 0.22 in Rain Light Rain
9:54 AM 82.9 °F 92.8 °F 78.1 °F 85% 29.91 in 10.0 mi NE 11.5 mph - 0.00 in   Clear
10:23 AM 84.9 °F 96.6 °F 78.1 °F 80% 29.92 in 10.0 mi NNE 12.7 mph - N/A   Mostly Cloudy
10:44 AM 84.9 °F 97.5 °F 79.0 °F 82% 29.92 in 10.0 mi ENE 9.2 mph - 0.00 in Rain Light Rain
10:54 AM 87.1 °F 101.5 °F 79.0 °F 77% 29.89 in 10.0 mi NE 15.0 mph - 0.00 in   Mostly Cloudy
11:54 AM 84.9 °F 94.1 °F 75.9 °F 74% 29.87 in 10.0 mi ENE 16.1 mph - N/A   Clear
12:54 PM 78.1 °F - 73.9 °F 87% 29.87 in 7.0 mi East 18.4 mph 33.4 mph 0.00 in Rain Light Rain
1:11 PM 75.9 °F - 73.0 °F 91% 29.89 in 1.8 mi East 16.1 mph - 0.00 in Rain Heavy Rain
1:32 PM 75.9 °F - 73.0 °F 91% 29.87 in 3.0 mi ENE 15.0 mph 25.3 mph 0.13 in Rain Rain
1:54 PM 77.0 °F - 73.0 °F 88% 29.85 in 9.0 mi East 12.7 mph - 0.13 in Rain Light Rain
2:54 PM 79.0 °F - 73.9 °F 84% 29.82 in 10.0 mi ENE 12.7 mph - 0.07 in   Scattered Clouds
3:54 PM 80.1 °F 84.5 °F 73.9 °F 81% 29.83 in 10.0 mi East 12.7 mph - N/A   Partly Cloudy
4:54 PM 80.1 °F 85.1 °F 75.0 °F 85% 29.83 in 10.0 mi ENE 11.5 mph - 0.00 in   Partly Cloudy
5:54 PM 80.1 °F 85.4 °F 75.9 °F 87% 29.83 in 10.0 mi ENE 12.7 mph - 0.00 in Rain Light Rain
5:55 PM 80.1 °F 85.4 °F 75.9 °F 87% 29.86 in 10.0 mi ENE 12.7 mph - 0.00 in Rain Light Rain
6:54 PM 80.1 °F 85.4 °F 75.9 °F 87% 29.85 in 10.0 mi ENE 12.7 mph - 0.00 in   Clear
7:54 PM 79.0 °F - 75.9 °F 90% 29.87 in 10.0 mi East 10.4 mph - N/A   Clear
8:54 PM 80.1 °F 85.4 °F 75.9 °F 87% 29.88 in 10.0 mi ENE 12.7 mph - N/A   Clear
9:54 PM 80.1 °F 85.4 °F 75.9 °F 87% 29.87 in 10.0 mi East 11.5 mph - N/A   Partly Cloudy
10:54 PM 80.1 °F 85.4 °F 75.9 °F 87% 29.87 in 10.0 mi East 9.2 mph - N/A   Partly Cloudy
11:54 PM 81.0 °F 87.3 °F 75.9 °F 85% 29.86 in 10.0 mi East 9.2 mph - N/A   Partly Cloudy